This is the latest recevied weather packets stored in our database for station/object N4NVD-13. If no packets are shown the sender has not sent any weather packets the latest 10 day(s).
| Time | Temp. | Humidity | Pressure | Rain* | Wind** | Luminosity | Snow |
|---|---|---|---|---|---|---|---|
| 1777129006 | 25.56° C | 92% | 1007.9 hPa | 0 mm | - | 329 W/m² | - |
| 1777128703 | 25.56° C | 93% | 1008.2 hPa | 0 mm | - | 202 W/m² | - |
| 1777128401 | 25.56° C | 93% | 1007.9 hPa | 0 mm | - | 247 W/m² | - |
| 1777128098 | 25° C | 94% | 1007.8 hPa | 0 mm | - | 212 W/m² | - |
| 1777127795 | 25° C | 94% | 1007.9 hPa | 0 mm | - | 111 W/m² | - |
| 1777127492 | 25° C | 94% | 1007.8 hPa | 0 mm | - | 143 W/m² | - |
| 1777127188 | 25° C | 95% | 1007.9 hPa | 0 mm | - | 149 W/m² | - |
| 1777126884 | 25° C | 95% | 1007.9 hPa | 0 mm | - | 124 W/m² | - |
| 1777126581 | 25° C | 95% | 1007.8 hPa | 0 mm | - | 77 W/m² | - |
| 1777126277 | 25° C | 95% | 1007.7 hPa | 0 mm | - | 70 W/m² | - |
| 1777125972 | 25° C | 94% | 1007.6 hPa | 0 mm | - | 104 W/m² | - |
| 1777125669 | 25° C | 94% | 1007.9 hPa | 0 mm | - | 104 W/m² | - |
| 1777125365 | 25° C | 95% | 1007.9 hPa | 0 mm | - | 105 W/m² | - |
| 1777125060 | 25° C | 94% | 1007.6 hPa | 0 mm | - | 144 W/m² | - |
| 1777124756 | 25° C | 94% | 1007.8 hPa | 0 mm | - | 158 W/m² | - |
| 1777124451 | 25° C | 94% | 1007.9 hPa | 0 mm | - | 209 W/m² | - |
| 1777124149 | 25° C | 94% | 1007.7 hPa | 0 mm | - | 171 W/m² | - |
| 1777123845 | 25° C | 95% | 1007.9 hPa | 0 mm | - | 204 W/m² | - |
| 1777123542 | 24.44° C | 96% | 1007.8 hPa | 0 mm | - | 176 W/m² | - |
| 1777123238 | 23.89° C | 97% | 1007.9 hPa | 0 mm | - | 86 W/m² | - |
| 1777122934 | 23.89° C | 97% | 1007.9 hPa | 0 mm | - | 97 W/m² | - |
| 1777122631 | 23.89° C | 97% | 1007.9 hPa | 0 mm | - | 102 W/m² | - |
| 1777122326 | 23.89° C | 97% | 1007.8 hPa | 0 mm | - | 75 W/m² | - |
| 1777122023 | 23.89° C | 97% | 1007.8 hPa | 0 mm | - | 81 W/m² | - |
| 1777121718 | 23.89° C | 97% | 1007.6 hPa | 0 mm | - | 62 W/m² | - |
* Rain latest hour (hover to see other rain measurements)
** Current wind speed in m/s (hover to see current wind gust speed)